STARLINK-33830, 63587

Orbit data source: Space-Track

STARLINK-33830, 63587 is a payload satellite in LEO that was launched on Mon, 14 Apr 2025 UTC via an FALCON 9 launch vehicle from the Air Force Eastern Test Range (AFETR). Payload-class satellites include a variety of spacecraft equipped with specific instruments for various scientific and technological missions. These include communications satellites like Starlink; space stations such as the ISS; scientific satellites like the Hubble; Earth observation satellites from companies like Planet Labs, Umbra, and HawkEye 360; GPS; miniature CubeSats for education and research; and military/defense satellites.

Loading next visibility...
Identifier
63587, 2025-076U
Orbit
LEO
Last TLE update
10 hours ago
Origin
Manufacturer
SpaceX/Seattle
Mission
Operational spacecraft
Bus & Motor
STARLINK V2MO, Unknown motor
Mass
575 kg wet, ~530 kg dry
Launch date (UTC)
2025-04-14 (1 month ago)
Launch vehicle
FALCON 9
Launch site
Air Force Eastern Test Range (AFETR)
Object type
Payload
Rocket body
Debris
Shape & HBR
Unknown
Radar Cross Section
Large (>1 m²)

Expand to show TLE details & history

TLE from 10 hours ago
0 STARLINK-33830
1 63587U 25076U   25140.25002315 -.00045294  00000-0 -10829-2 0  9997
2 63587  42.9999 181.4301 0001256 262.6538  79.5062 15.40715857  6870
Epoch: 2025-05-20T06:00Z
TLE epoch observation values (Epoch: 2025-05-20T06:00:02Z)
Latitude
-12.17525°
Longitude
-160.03134°
Altitude
445.984 km
Speed
7.646 km/s
True Right ascension
11h 12m 30s
True Declination
-12° 06' 05"
Sunlit
Object was in full shadow at epoch
Visualization orbit readout
Latitude
-4.74617°
Longitude
35.89596°
Altitude
444.453 km
Speed
7.647 km/s
Apparent Right ascension
22h 23m 57s
Apparent Declination
-63° 41' 34"
Sunlit
Object is in daylight
Visualization observer readout
Local Sidereal Time
01:07:02
Azimuth
197.773° SSW
Elevation
-18.529°
Doppler factor
1
Orbital elements
Apogee altitude
446.809 km
Perigee altitude
445.095 km
Semi-major axis
6,824.089 km
Eccentricity
0.00013
Inclination
42.9999°
RAAN
181.4301°
Arg. of periapsis
262.6538°
True anomaly
Unknown
Mean anomaly
79.5062°
Eccentric anomaly
Unknown
Mean motion
3.85014 °/min
Orbital period
93.5 mins
BSTAR
-0.0010829
Loading maneuver chart data...
Loading SW <> Apogee altitude chart data...
Loading historical data...
Loading historical data...
Loading historical data...
Loading historical data...
Loading historical data...
Loading historical data...
Loading historical data...

STARLINK-33830 Visibility forecast

Observer location: undefined°, undefined°

Span
Click to sort rows by Start time (UTC) header in descending order
Start Az.
Max El. time (UTC)
Max El. Az.
Max El.
End time (UTC)
End Az.
5 mins2025-05-21 05:37:14.019Z200.769° SSW2025-05-21 05:39:14.019Z156.251° SSE24.939°2025-05-21 05:42:14.019Z90.451° ESE
5 mins2025-05-21 07:15:14.019Z261.215° W2025-05-21 07:17:14.019Z320.164° NNW43.856°2025-05-21 07:20:14.019Z69.734° E
4 mins2025-05-21 08:54:14.019Z302.748° NW2025-05-21 08:55:14.019Z335.806° NNW35.847°2025-05-21 08:58:14.019Z74.638° E
5 mins2025-05-21 10:32:14.019Z285.809° WNW2025-05-21 10:34:14.019Z126.73° SE43.274°2025-05-21 10:37:14.019Z112.021° ESE
|